Regional Weather Roundup
Issued by NWS Portland, ME

Current Version | Previous Version | Text Only | Print | Product List | Glossary Off
Versions: 1 2 3 4 5 6 7 8 9 10 11 12 13 14 15 16 17 18 19 20 21 22 23 24 25 26 27 28 29 30 31 32 33 34 35 36 37 38 39 40 41 42 43 44 45 46 47 48 49 50
000 ASUS41 KGYX 221510 RWRGYX WEATHER ROUNDUP FOR MAINE AND NEW HAMPSHIRE NATIONAL WEATHER SERVICE GRAY ME 1100 AM EDT TUE MAY 22 2018 MEZ002-005-006-010-012-015-018-020-021-024-026-027-029-221600- MAINE CITY SKY/WX TMP DP RH WIND PRES REMARKS PORTLAND CLOUDY 59 48 67 E7 30.17F SANFORD FAIR 68 48 48 SE6 30.16F BAR HARBOR FAIR 65 28 24 S13 30.19F WISCASSET FAIR 64 41 42 SE7 30.18F ROCKLAND FAIR 59 40 49 E9 30.18F FRYEBURG FAIR 63 46 54 CALM 30.17F LEWISTONAUBURN FAIR 66 38 35 VRB7 30.16F AUGUSTA FAIR 65 35 33 S12 30.17F WATERVILLE FAIR 66 36 32 VRB5 30.14F BANGOR CLOUDY 66 33 29 S9 30.17F GREENVILLE N/A 64 37 36 S8G17 30.11F MILLINOCKET FAIR 65 33 30 SW8 30.14F HOULTON FAIR 65 31 28 SW17G23 30.10F PRESQUE ISLE PTSUNNY 67 32 27 S13 30.07F FRENCHVILLE FAIR 66 33 29 S13 30.02F CARIBOU FAIR 67 31 26 SW10 30.05F $$ NHZ002-005-008-009-011-012-014-221600- NEW HAMPSHIRE CITY SKY/WX TMP DP RH WIND PRES REMARKS PORTSMOUTH CLOUDY 65 48 53 SE7 30.14F ROCHESTER FAIR 68 51 54 E6 30.14F NASHUA CLOUDY 64 54 69 VRB3 30.16S MANCHESTER CLOUDY 68 50 52 SE3 30.15S CONCORD FAIR 67 53 61 VRB3 30.15F LACONIA FAIR 63 50 62 VRB6 30.15F PLYMOUTH FAIR 66 48 52 E6 30.14F BERLIN FAIR 68 46 45 S8 30.13F WHITEFIELD FAIR 69 51 52 NW5 30.11F JAFFREY LGT RAIN 62 53 72 CALM 30.18F KEENE LGT RAIN 57 53 86 NW3 30.16F LEBANON FAIR 65 50 58 W3 30.13F MT WASHINGTON CLOUDY 46 28 49 S35G43 N/A $$ VTZ005-007-008-221600- VERMONT CITY SKY/WX TMP DP RH WIND PRES REMARKS ST JOHNSBURY N/A 65 47 52 MISG 30.09F MONTPELIER FAIR 66 49 54 S9 30.15F BURLINGTON PTSUNNY 68 50 52 S10 30.06F $$ MAZ007-012-024-CTZ003-RIZ002-NYZ038-NYZ072-221600- SOUTHERN NEW ENGLAND AND NY CITY SKY/WX TMP DP RH WIND PRES REMARKS BOSTON LGT RAIN 63 52 67 NE10 30.16S WORCESTER CLOUDY 64 47 53 NE3 30.16F NANTUCKET FAIR 59 51 75 SW9 30.19S PROVIDENCE PTSUNNY 66 54 65 S5 30.16F HARTFORD LGT RAIN 62 53 72 CALM 30.16S ALBANY LGT RAIN 61 52 72 CALM 30.11S NEW YORK CITY CLOUDY 66 54 65 S8 30.15S $$ ANZ081-ANZ082-ANZ150-NHZ014-MEZ023>029-221600- COASTAL MARINE OBSERVATIONS STATION/POSITION TIME TEMP WIND PRES WAVE AIR SEA DIR/SP/G HT/PER (UTC) (F) (DEG/KT/KT) (MB) (FT/S) MOUNT DESERT ROC 1400 51 90/ 11/ 11 1022.5F MATINICUS ROCK 1400 52 90/ 13/ 13 1021.6F ISLE OF SHOALS 1400 55 60/ 10/ 10 1020.9F JEFFREYS LEDGE 1436 53 N/A 2/ 8 CASHES LEDGE BUO 1350 53 50 1021.8 2/ 7 $$ .............KEY.............. WCI - WIND CHILL TC - TEMPERATURE IN CELSIUS VSB - VISIBILITY IN MILES HX - HEAT INDEX FAIR- INDICATES FEW OR NO CLOUDS BELOW 12,000 FT, WITH NO SIGNIFICANT WEATHER AND/OR OBSTRUCTIONS TO VISIBILITY.

USA.gov is the U.S. government's official web portal to all federal, state and local government web resources and services.